Regional Weather Roundup
Issued by NWS

Home | Current Version | Previous Version | Text Only | Print | Product List | Glossary Off
Versions: 1 2 3 4 5 6 7 8 9 10 11 12 13 14 15 16 17 18 19 20 21 22 23 24 25 26 27 28 29 30 31 32 33 34 35 36 37 38 39 40 41 42 43 44 45 46 47 48 49 50

000
ASUS43 KMKX 271011
RWRWI

WISCONSIN REGIONAL WEATHER ROUNDUP
NATIONAL WEATHER SERVICE MILWAUKEE/SULLIVAN WI
500 AM CDT MON MAR 27 2017

NOTE: "FAIR" INDICATES FEW OR NO CLOUDS BELOW 12,000 FEET WITH NO
SIGNIFICANT WEATHER AND/OR OBSTRUCTIONS TO VISIBILITY.

WIZ001-002-006>008-014>016-023>028-271100-
NORTHWEST WISCONSIN

CITY           SKY/WX    TMP DP  RH WIND       PRES   REMARKS
SUPERIOR ARPT  CLOUDY    32  32 100 CALM      29.95S FOG
ASHLAND        CLOUDY    32  32 100 CALM      29.95R
HAYWARD        CLOUDY    35  32  88 CALM      29.93R
SIREN          CLOUDY    34  34  99 CALM      29.95S
CUMBERLAND     RAIN      32  32 100 NW5       29.94R WCI  27
RICE LAKE      CLOUDY    35  34  97 CALM      29.95R
CHETEK         DRIZZLE   35  34  99 CALM      29.94R
LADYSMITH      CLOUDY    34  33  96 N6        29.93S WCI  29
EAU CLAIRE     CLOUDY    38  35  89 CALM      29.93R
MENOMONIE      CLOUDY    37  37  97 NW5       29.94R WCI  34
NEW RICHMOND   DRIZZLE   35  35 100 N5        29.95R WCI  31
OSCEOLA        LGT RAIN  35  35 100 CALM      29.99R
$$

WIZ003>005-009-010-017-018-271100-
NORTH CENTRAL WISCONSIN

CITY           SKY/WX    TMP DP  RH WIND       PRES   REMARKS
MANITOWISH WTR CLOUDY    31  31 100 N6        29.90R FOG     WCI  25
ARBOR VITAE    CLOUDY    34  33  96 NW7       29.89R WCI  28
WOODRUFF       CLOUDY    34  33  96 NW7       29.89R WCI  28
RHINELANDER    CLOUDY    34  34 100 VRB3      29.89R FOG
EAGLE RIVER    CLOUDY    32  32 100 N5        29.87S WCI  27
LAND O LAKES   CLOUDY    32  32 100 N5        29.90R WCI  27
PHILLIPS       LGT RAIN  32  32 100 CALM      29.89S
TOMAHAWK       LGT RAIN  32  31  98 NW3       29.90R
MEDFORD        CLOUDY    33  33  97 NW3       29.90R
MERRILL        CLOUDY    34  34 100 N6        29.90R WCI  29
$$

WIZ029-030-035-036-043>047-271100-
CENTRAL WISCONSIN

CITY           SKY/WX    TMP DP  RH WIND       PRES   REMARKS
WAUSAU         CLOUDY    37  35  92 NW5       29.88R WCI  33
MOSINEE        CLOUDY    36  36 100 NW3       29.90R
MARSHFIELD     FOG       38  36  92 NW3       29.89R VSB 1/4
STEVENS POINT  CLOUDY    37  37 100 CALM      29.90R
WAUPACA        CLOUDY    40  39  97 CALM      29.90R FOG
WAUTOMA        CLOUDY    39  39 100 W3        29.90R FOG
WISC RAPIDS    CLOUDY    39  39 100 W5        29.91R FOG
CAMP DOUGLAS   CLOUDY    39  39 100 CALM      29.90R
$$

WIZ011>013-019>022-031-037>040-048>050-271100-
NORTHEAST WISCONSIN

CITY           SKY/WX    TMP DP  RH WIND       PRES   REMARKS
ANTIGO         CLOUDY    34  34 100 NW5       29.88R FOG     WCI  30
SHAWANO        CLOUDY    39  37  95 SW5       29.90R
OCONTO         CLOUDY    36  36  98 W3        29.89R
STURGEON BAY   CLOUDY    36  36 100 NW6       29.89R FOG     WCI  31
GREEN BAY      CLOUDY    38  38 100 W6        29.90R WCI  33
MANITOWOC      CLOUDY    38  36  92 W6        29.90R WCI  33
APPLETON       CLOUDY    36  36 100 W3        29.89R
CLINTONVILLE   CLOUDY    36  36 100 CALM      29.89R FOG
OSHKOSH        CLOUDY    38  37  97 NW3       29.89R
$$

WIZ032>034-041-042-053>061-271100-
SOUTHWEST WISCONSIN

CITY           SKY/WX    TMP DP  RH WIND       PRES   REMARKS
LA CROSSE      CLOUDY    42  40  92 CALM      29.92R
SPARTA         CLOUDY    38  38 100 CALM      29.92S FOG
VIROQUA        CLOUDY    39  39 100 CALM      29.90R VSB 1/4
BOSCOBEL       CLOUDY    42  41  96 CALM      29.92R FOG
PRAIRIE DU CHI CLOUDY    42  40  93 CALM      29.92S
PLATTEVILLE    CLOUDY    42  42 100 CALM      29.90F VSB 1/2
$$

WIZ056-057-062-063-064-067-068-271100-
SOUTH CENTRAL WISCONSIN

CITY           SKY/WX    TMP DP  RH WIND       PRES   REMARKS
REEDSBURG      CLOUDY    39  39 100 CALM      29.90S FOG
BARABOO/DELLS  CLOUDY    39  38  97 CALM      29.91R FOG
LONE ROCK      CLOUDY    42  40  92 CALM      29.91S FOG
MINERAL POINT  FOG       43  43 100 N3        29.90R VSB 1/4
MADISON        CLOUDY    41  39  93 CALM      29.91R
MIDDLETON      CLOUDY    42  42 100 CALM      29.91R
WATERTOWN      FOG       40  40 100 W3        29.90R VSB 1
MONROE         FOG       41  41 100 CALM      29.89F VSB 1/4
JANESVILLE     CLOUDY    43  43 100 NW5       29.90R
$$

WIZ051-052-058>065-066-070>072-271100-
SOUTHEAST WISCONSIN

CITY           SKY/WX    TMP DP  RH WIND       PRES   REMARKS
MILWAUKEE      CLOUDY    43  39  86 W6        29.89S
WAUKESHA       CLOUDY    37  37 100 W7        29.90R WCI  32
MILWAUKEE/TIMM CLOUDY    39  36  87 W3        29.90R
RACINE         CLOUDY    43  40  89 W6        29.92R
KENOSHA        CLOUDY    43  41  93 W6        29.90R
FOND DU LAC    CLOUDY    39  36  89 NW3       29.89S
SHEBOYGAN      CLOUDY    38  36  92 NW7       29.88S WCI  33
WEST BEND      CLOUDY    37  37 100 NW5       29.88S WCI  34
JUNEAU         FOG       38  38  98 CALM      29.90R VSB 1/4
$$

LSZ147-162-271100-
LAKE SUPERIOR

STATION/POSITION TIME  TEMP    WIND        PRES    WAVE
                       AIR SEA DIR/SP/G            HT/PER
                 (UTC) (F)     (DEG/KT/KT) (MB)    (FT/S)
DEVILS ISLAND    1000   33     240/  9/ 10 1015.0R
PORT WING        0930   34     250/  3/  4 1014.6R
SAXON HARBOR     0930   33      10/  2/  3 1013.9S
$$

LMZ867-665-643>646-271100-
LAKE MICHIGAN

STATION/POSITION TIME  TEMP    WIND        PRES    WAVE
                       AIR SEA DIR/SP/G            HT/PER
                 (UTC) (F)     (DEG/KT/KT) (MB)    (FT/S)
CHAMBERS ISLAND  0940   34     260/  3/  6 1011.9R
NORTHPORT PIER   0930   34     310/  3/  8 1011.2R
SISTER BAY       0806   34        CALM       N/A
KEWAUNEE LAKESHO 0948   36     290/  1/  3 1011.5R
SHEBOYGAN LAKESH 1000   39     340/  6/  7 1012.4F
PORT WASHINGTON  0940   41     310/  3/  6 1012.9S
MILWAUKEE LAKESH 0950   42     290/  5/  6   N/A
KENOSHA   LAKESH 1000   44     290/  6/  9 1012.9
$$

TC  - TEMPERATURE IN CELSIUS
VSB - VISIBILITY IN STATUTE MILES
WCI - WIND CHILL INDEX
HX  - HEAT INDEX




USA.gov is the U.S. government's official web portal to all federal, state and local government web resources and services.